Alicante, Spain

11:46 AM CEST on April 27, 2018 (GMT +0200)
Alicante

Weather History for LEAL - November, 2012

Change the Weather History Date:

Wednesday, November 14, 2012

  Actual Average Record
Temperature  
Mean Temperature 64 °F -  
Max Temperature 72 °F 63 °F 77 °F (1998)
Min Temperature 55 °F 47 °F 44 °F (2001)
Degree Days  
Heating Degree Days 2    
Growing Degree Days 14 (Base 50)    
Moisture  
Dew Point 57 °F    
Average Humidity 84    
Maximum Humidity 100    
Minimum Humidity 48    
Precipitation  
Precipitation 0.00 in - - ()
Sea Level Pressure  
Sea Level Pressure 29.98 in    
Wind  
Wind Speed 4 mph ()    
Max Wind Speed 15 mph    
Max Gust Speed -    
Visibility 6.6 miles    
Events Rain    
Averages and records for this station are not official NWS values.
T = Trace of Precipitation, MM = Missing Value Source: Averaged Metar Reports

Daily Weather History Graph

Daily Weather History Graph

Search for Another Location

Airport or City:

Astronomy

Nov. 14, 2012 Rise Set
Actual Time 7:42 AM CET 5:50 PM CET
Civil Twilight 7:14 AM CET 6:18 PM CET
Nautical Twilight 6:42 AM CET 6:50 PM CET
Astronomical Twilight 6:11 AM CET 7:21 PM CET
Moon 8:13 AM CET (11/14) 6:25 PM CET (11/14)
Length of Visible Light 11h 03m
Length of Day
10h 07m
New Moon, 0% of the Moon is Illuminated
Nov 14
New Moon
Nov 20
First Quarter
Nov 28
Full
Dec 6
Last Quarter
Dec 13
New

Hourly Weather History & Observations

Time (CET) Temp. Dew Point Humidity Pressure Visibility Wind Dir Wind Speed Gust Speed Precip Events Conditions
12:00 AM 60.8 °F 55.4 °F 82% 29.95 in 6.2 mi Variable 1.2 mph - N/A   Scattered Clouds
12:30 AM 62.6 °F 55.4 °F 77% 29.95 in 6.2 mi North 5.8 mph - N/A   Scattered Clouds
1:00 AM 61 °F 53 °F 68% 29.96 in 12 mi NW 1.2 mph - - Rain Light Rain
1:00 AM 60.8 °F 55.4 °F 82% 29.95 in 6.2 mi Variable 1.2 mph - N/A Rain Light Rain
1:30 AM 60.8 °F 57.2 °F 88% 29.95 in 6.2 mi NNW 3.5 mph - N/A Rain Light Rain
2:00 AM 59.0 °F 57.2 °F 94% 29.95 in 6.2 mi NW 3.5 mph - N/A Rain Light Rain
3:30 AM 57.2 °F 55.4 °F 94% 29.95 in 6.2 mi SSE 3.5 mph - N/A   Scattered Clouds
4:00 AM 57.2 °F 55.4 °F 94% 29.98 in 6.2 mi Calm Calm - N/A   Scattered Clouds
4:30 AM 57.2 °F 55.4 °F 94% 29.95 in 6.2 mi WNW 5.8 mph - N/A   Scattered Clouds
5:00 AM 57.2 °F 55.4 °F 94% 29.95 in 6.2 mi West 5.8 mph - N/A   Partly Cloudy
5:30 AM 57.2 °F 55.4 °F 94% 29.95 in 6.2 mi WNW 8.1 mph - N/A   Partly Cloudy
6:00 AM 57.2 °F 55.4 °F 94% 29.95 in 6.2 mi WNW 5.8 mph - N/A   Partly Cloudy
6:30 AM 57.2 °F 55.4 °F 94% 29.95 in 6.2 mi West 3.5 mph - N/A   Mostly Cloudy
7:00 AM 57 °F 53 °F 81% 29.95 in 12 mi WNW 8.1 mph - -   Partly Cloudy
7:00 AM 57.2 °F 55.4 °F 94% 29.95 in 6.2 mi WNW 5.8 mph - N/A   Partly Cloudy
7:30 AM 59.0 °F 55.4 °F 88% 29.89 in 6.2 mi WNW 15.0 mph - N/A   Partly Cloudy
8:00 AM 59.0 °F 55.4 °F 88% 29.95 in 6.2 mi Variable 9.2 mph - N/A   Partly Cloudy
9:00 AM 55.4 °F 55.4 °F 100% 29.98 in 6.2 mi Variable 2.3 mph - N/A   Partly Cloudy
10:00 AM 59.0 °F 57.2 °F 94% 30.01 in 6.2 mi WSW 3.5 mph - N/A   Mostly Cloudy
11:00 AM 66.2 °F 57.2 °F 73% 30.01 in 6.2 mi WNW 4.6 mph - N/A   Scattered Clouds
12:00 PM 68.0 °F 57.2 °F 68% 30.01 in 6.2 mi Variable 2.3 mph - N/A   Mostly Cloudy
1:00 PM 69 °F 54 °F 48% 30.00 in - East 6.9 mph - -  
1:00 PM 68.0 °F 57.2 °F 68% 29.98 in 6.2 mi East 6.9 mph - N/A   Scattered Clouds
2:00 PM 71.6 °F 59.0 °F 64% 29.98 in 6.2 mi Variable 2.3 mph - N/A   Scattered Clouds
3:00 PM 68.0 °F 59.0 °F 73% 29.98 in 6.2 mi ESE 5.8 mph - N/A   Scattered Clouds
4:00 PM 68.0 °F 59.0 °F 73% 29.98 in 6.2 mi SW 3.5 mph - N/A   Partly Cloudy
5:00 PM 68.0 °F 59.0 °F 73% 29.98 in 6.2 mi Variable 2.3 mph - N/A   Partly Cloudy
6:00 PM 64.4 °F 60.8 °F 88% 30.01 in 6.2 mi Variable 1.2 mph - N/A   Mostly Cloudy
7:00 PM 63 °F 57 °F 74% 30.02 in - East 2.3 mph - -  
7:00 PM 62.6 °F 60.8 °F 94% 30.01 in 6.2 mi Variable 2.3 mph - N/A   Scattered Clouds
8:00 PM 60.8 °F 59.0 °F 94% 30.04 in 6.2 mi WNW 3.5 mph - N/A   Partly Cloudy
9:00 PM 64.4 °F 59.0 °F 83% 30.04 in 6.2 mi NE 3.5 mph - N/A   Mostly Cloudy
10:00 PM 62.6 °F 59.0 °F 88% 30.06 in 6.2 mi Variable 2.3 mph - N/A   Scattered Clouds
11:00 PM 62.6 °F 60.8 °F 94% 30.06 in - NNE 4.6 mph - N/A   Clear